DECAYED

OBJECT CA, 55081 (Decayed)

Orbit data source: Space-Track

You're viewing an Uncataloged Satellite

Recently launched and/or uncataloged satellites may have evolving metadata. Metadata may include but not limited to: Owner, Maufacturer, Bus, Motor, and Mission.

OBJECT CA, 55081 was a satellite in LEO that was launched on Tue, 03 Jan 2023 UTC via an FALCON 9 launch vehicle from the Air Force Eastern Test Range (AFETR). Unknown objects in Earth's orbit typically refer to objects detected orbiting the Earth but have not yet been identified or cataloged. These objects could be anything from previously untracked satellites, spent rocket stages, debris from satellite collisions, or even natural meteoroids temporarily captured by Earth's gravity. This object's orbit decayed before it could be identified.

Not visible in the next 10 days
Identifier
55081, 2023-001CA
Orbit
Decayed
Country
Flag of TBDTBD
Related business
None
Manufacturer
Unknown
Mission
Decayed Amateur Technology
Bus & Motor
Unknown
Mass
Unknown
Launch date (UTC)
2023-01-03 (3 years ago)
Launch vehicle
FALCON 9
Launch site
Air Force Eastern Test Range (AFETR)
Object type
Unknown
Shape & HBR
Box, 0.1 m
Radar Cross Section
0.025 m², Medium (>0.1 m² and < 1m²)

Expand to show TLE details & history
Last TLE update: 5 months ago

TLE from 5 months ago
0 OBJECT CA
1 55081U 23001CA  25363.59219091  .08094748  24784-5  43075-3 0  9992
2 55081  97.3046  83.6830 0007661 279.6622  80.3813 16.42013308167478
Epoch: 2025-12-29T14:12Z
TLE epoch observation values (Epoch: 2025-12-29T14:12:45.294Z)
Latitude
-0.00005°
Longitude
132.20667°
Altitude
162.876 km
Speed
7.809 km/s
True Right ascension
05h 34m 43s
True Declination
0° 00' 00"
Sunlit
Object was in full shadow at epoch
Visualization orbit readout
Latitude
Unknown
Longitude
Unknown
Altitude
Unknown
Speed
Unknown
Apparent Right ascension
Unknown
Apparent Declination
Unknown
Sunlit
N/A
Visualization observer readout
Local Sidereal Time
16:59:55
Azimuth
Unknown
Elevation
Unknown
Doppler factor
Unknown
Orbital elements
Apogee altitude
162.26 km
Perigee altitude
152.246 km
Semi-major axis
6,535.39 km
Eccentricity
0.00077
Inclination
97.3046°
RAAN
83.683°
Arg. of periapsis
279.6622°
True anomaly
80.46787°
Mean anomaly
80.3813°
Eccentric anomaly
80.42458°
Mean motion
4.10805 °/min
Orbital period
87.63 mins
BSTAR
0.00043075
Loading maneuver chart data...
Computing Atmospheric mass density...

Documentation

Showing up to 5 results
|